QPF
0.00 0.00 0.00 0.01 0.01 0.01 0.02 0.02 0.02 0.01 0.00 0.00 0.00 0.01 0.01 0.01 0.02 0.02 0.01 0.02 0.01 0.02 0.02 0.02 0.04 0.03 0.04 0.07 0.15 0.20 0.17 0.19 0.16 0.15 0.15 0.15 0.15 0.17 0.17 0.16 0.17 0.18 0.14 0.10
0.01 0.00 0.00 0.01 0.01 0.00 0.01 0.01 0.01 0.01 0.01 0.00 0.00 0.01 0.01 0.01 0.01 0.02 0.01 0.01 0.01 0.01 0.01 0.03 0.05 0.03 0.03 0.05 0.12 0.18 0.16 0.18 0.17 0.14 0.14 0.13 0.14 0.15 0.16 0.17 0.15 0.14 0.16 0.13
0.02 0.00 0.01 0.01 0.00 0.00 0.00 0.01 0.01 0.01 0.01 0.00 0.01 0.01 0.01 0.01 0.01 0.02 0.01 0.01 0.01 0.01 0.01 0.03 0.05 0.03 0.03 0.04 0.09 0.16 0.14 0.16 0.17 0.14 0.13 0.13 0.13 0.14 0.14 0.15 0.15 0.12 0.10 0.11
0.03 0.01 0.02 0.00 0.00 0.00 0.00 0.00 0.00 0.00 0.00 0.01 0.01 0.00 0.01 0.01 0.01 0.01 0.01 0.01 0.01 0.01 0.01 0.02 0.04 0.03 0.03 0.03 0.06 0.13 0.13 0.13 0.15 0.14 0.13 0.14 0.14 0.12 0.13 0.12 0.12 0.11 0.09 0.08
0.04 0.02 0.01 0.00 0.00 0.00 0.00 0.00 0.00 0.00 0.00 0.00 0.00 0.00 0.00 0.00 0.00 0.01 0.01 0.01 0.01 0.01 0.01 0.02 0.03 0.02 0.02 0.03 0.05 0.10 0.13 0.11 0.14 0.14 0.13 0.13 0.13 0.15 0.13 0.13 0.11 0.10 0.08 0.08
0.04 0.03 0.01 0.00 0.00 0.00 0.00 0.01 0.00 0.00 0.00 0.00 0.01 0.01 0.00 0.00 0.00 0.00 0.01 0.01 0.01 0.01 0.01 0.01 0.01 0.02 0.02 0.02 0.04 0.08 0.11 0.09 0.12 0.13 0.12 0.12 0.11 0.13 0.14 0.13 0.11 0.10 0.07 0.07
0.03 0.03 0.01 0.00 0.00 0.00 0.01 0.01 0.00 0.00 0.00 0.01 0.01 0.01 0.00 0.00 0.00 0.00 0.01 0.01 0.01 0.01 0.01 0.01 0.01 0.01 0.02 0.02 0.03 0.07 0.09 0.06 0.09 0.11 0.11 0.11 0.10 0.10 0.13 0.13 0.11 0.11 0.10 0.08
0.02 0.03 0.01 0.00 0.00 0.00 0.01 0.00 0.00 0.00 0.00 0.01 0.01 0.01 0.00 0.00 0.00 0.01 0.01 0.01 0.01 0.01 0.01 0.01 0.01 0.01 0.02 0.02 0.02 0.05 0.06 0.05 0.07 0.10 0.11 0.11 0.11 0.09 0.11 0.13 0.11 0.10 0.10 0.10
0.01 0.01 0.00 0.00 0.00 0.00 0.00 0.00 0.00 0.00 0.01 0.02 0.01 0.01 0.01 0.00 0.00 0.01 0.01 0.01 0.01 0.01 0.02 0.01 0.01 0.01 0.02 0.02 0.03 0.04 0.04 0.04 0.06 0.09 0.12 0.12 0.10 0.09 0.11 0.12 0.10 0.09 0.09 0.10
0.01 0.00 0.00 0.00 0.00 0.00 0.00 0.00 0.00 0.01 0.01 0.02 0.02 0.01 0.01 0.01 0.01 0.01 0.01 0.01 0.00 0.00 0.01 0.02 0.01 0.02 0.03 0.02 0.03 0.04 0.03 0.04 0.05 0.07 0.12 0.13 0.11 0.09 0.09 0.10 0.08 0.07 0.07 0.07
0.01 0.00 0.00 0.00 0.00 0.00 0.00 0.00 0.00 0.01 0.01 0.02 0.02 0.01 0.01 0.01 0.01 0.01 0.02 0.01 0.01 0.00 0.00 0.01 0.01 0.02 0.04 0.03 0.03 0.04 0.04 0.04 0.05 0.06 0.11 0.13 0.12 0.11 0.09 0.08 0.07 0.06 0.05 0.04
0.01 0.00 0.00 0.00 0.00 0.00 0.00 0.00 0.01 0.01 0.01 0.01 0.01 0.01 0.01 0.01 0.01 0.02 0.03 0.01 0.01 0.01 0.01 0.01 0.01 0.02 0.04 0.04 0.04 0.05 0.04 0.04 0.05 0.06 0.09 0.11 0.11 0.13 0.14 0.11 0.09 0.08 0.06 0.05
0.00 0.00 0.00 0.00 0.00 0.00 0.00 0.00 0.01 0.01 0.01 0.01 0.01 0.01 0.01 0.01 0.01 0.02 0.03 0.02 0.01 0.01 0.01 0.01 0.02 0.03 0.05 0.05 0.05 0.06 0.06 0.05 0.05 0.06 0.08 0.10 0.10 0.11 0.14 0.14 0.13 0.11 0.10 0.09
0.00 0.00 0.00 0.00 0.00 0.00 0.00 0.00 0.00 0.00 0.00 0.01 0.01 0.01 0.01 0.01 0.02 0.03 0.04 0.03 0.02 0.01 0.01 0.01 0.02 0.04 0.05 0.06 0.06 0.07 0.07 0.08 0.07 0.06 0.07 0.10 0.10 0.10 0.11 0.10 0.10 0.11 0.13 0.13
0.00 0.00 0.00 0.00 0.00 0.00 0.00 0.00 0.00 0.00 0.00 0.00 0.00 0.01 0.01 0.02 0.02 0.05 0.07 0.07 0.05 0.03 0.02 0.01 0.03 0.04 0.06 0.08 0.08 0.08 0.08 0.08 0.07 0.07 0.07 0.09 0.11 0.10 0.11 0.10 0.08 0.09 0.11 0.14
0.00 0.00 0.00 0.00 0.00 0.00 0.00 0.00 0.00 0.00 0.00 0.00 0.00 0.01 0.01 0.02 0.03 0.05 0.08 0.09 0.07 0.04 0.03 0.02 0.03 0.05 0.07 0.09 0.09 0.09 0.09 0.09 0.09 0.07 0.07 0.09 0.11 0.11 0.11 0.09 0.09 0.09 0.09 0.11
0.00 0.00 0.00 0.00 0.00 0.00 0.00 0.00 0.00 0.00 0.00 0.00 0.01 0.01 0.01 0.02 0.02 0.03 0.06 0.07 0.06 0.05 0.04 0.04 0.04 0.05 0.08 0.09 0.10 0.11 0.10 0.09 0.11 0.09 0.08 0.09 0.12 0.11 0.10 0.08 0.09 0.09 0.09 0.10
0.00 0.00 0.00 0.00 0.00 0.00 0.00 0.00 0.00 0.00 0.00 0.00 0.01 0.01 0.01 0.02 0.02 0.03 0.05 0.07 0.06 0.05 0.04 0.05 0.06 0.07 0.07 0.09 0.11 0.12 0.12 0.11 0.10 0.09 0.09 0.10 0.12 0.12 0.11 0.09 0.09 0.09 0.09 0.11
0.00 0.00 0.00 0.00 0.00 0.00 0.00 0.00 0.00 0.00 0.00 0.00 0.00 0.01 0.01 0.02 0.02 0.04 0.06 0.06 0.06 0.05 0.06 0.06 0.07 0.07 0.08 0.10 0.13 0.13 0.14 0.12 0.11 0.11 0.10 0.11 0.12 0.12 0.12 0.11 0.10 0.09 0.09 0.09
0.00 0.00 0.00 0.00 0.00 0.00 0.00 0.00 0.00 0.00 0.00 0.00 0.00 0.01 0.01 0.01 0.02 0.03 0.05 0.05 0.06 0.07 0.07 0.08 0.09 0.09 0.10 0.11 0.14 0.16 0.16 0.12 0.10 0.10 0.11 0.11 0.11 0.12 0.12 0.12 0.12 0.10 0.10 0.10
0.00 0.00 0.00 0.00 0.00 0.00 0.00 0.00 0.00 0.00 0.00 0.00 0.00 0.01 0.01 0.02 0.03 0.03 0.03 0.03 0.04 0.06 0.07 0.10 0.11 0.12 0.13 0.13 0.13 0.16 0.17 0.13 0.10 0.08 0.09 0.10 0.10 0.11 0.12 0.13 0.12 0.11 0.12 0.11
0.00 0.00 0.00 0.00 0.00 0.00 0.00 0.00 0.00 0.00 0.00 0.00 0.00 0.01 0.01 0.02 0.02 0.02 0.02 0.03 0.05 0.07 0.08 0.10 0.12 0.14 0.14 0.13 0.12 0.15 0.16 0.12 0.10 0.08 0.07 0.08 0.09 0.10 0.12 0.13 0.12 0.11 0.11 0.11
0.00 0.00 0.00 0.00 0.00 0.00 0.00 0.00 0.00 0.00 0.00 0.00 0.01 0.01 0.01 0.02 0.03 0.03 0.03 0.03 0.04 0.08 0.09 0.11 0.13 0.15 0.14 0.13 0.13 0.14 0.15 0.12 0.10 0.09 0.07 0.07 0.08 0.09 0.10 0.11 0.11 0.10 0.10 0.10
0.00 0.00 0.00 0.00 0.00 0.00 0.00 0.00 0.00 0.01 0.01 0.01 0.01 0.01 0.01 0.02 0.02 0.02 0.03 0.04 0.05 0.08 0.11 0.13 0.14 0.14 0.14 0.13 0.13 0.13 0.13 0.11 0.09 0.09 0.08 0.07 0.07 0.08 0.09 0.09 0.09 0.09 0.09 0.09
0.00 0.00 0.00 0.00 0.00 0.00 0.00 0.00 0.01 0.01 0.01 0.01 0.01 0.01 0.02 0.02 0.02 0.02 0.03 0.03 0.05 0.08 0.11 0.13 0.14 0.14 0.14 0.14 0.13 0.12 0.12 0.11 0.10 0.09 0.08 0.07 0.07 0.07 0.08 0.08 0.07 0.08 0.08 0.09
0.00 0.00 0.00 0.00 0.00 0.00 0.00 0.01 0.01 0.01 0.01 0.02 0.01 0.02 0.02 0.02 0.02 0.02 0.03 0.03 0.05 0.08 0.10 0.12 0.14 0.14 0.15 0.14 0.13 0.12 0.12 0.11 0.10 0.09 0.08 0.07 0.07 0.06 0.07 0.06 0.06 0.07 0.07 0.08
0.00 0.00 0.00 0.00 0.00 0.00 0.01 0.01 0.01 0.02 0.02 0.02 0.02 0.02 0.02 0.02 0.02 0.02 0.03 0.04 0.06 0.07 0.10 0.12 0.13 0.14 0.14 0.14 0.14 0.13 0.11 0.09 0.08 0.07 0.07 0.07 0.07 0.06 0.05 0.06 0.06 0.06 0.07 0.07
MSLP
1019.54 1019.21 1018.89 1018.58 1018.26 1017.89 1017.43 1016.84 1016.06 1015.09 1013.92 1012.60 1011.15 1009.66 1008.16 1006.69 1005.29 1003.94 1002.62 1001.30 999.93 998.50 996.99 995.43 993.86 992.35 990.97 989.83 988.99 988.51 988.42 988.71 989.36 990.31 991.51 992.86 994.29 995.72 997.10 998.40 999.59 1000.68 1001.68 1002.61
1019.40 1019.00 1018.58 1018.15 1017.72 1017.29 1016.80 1016.24 1015.55 1014.71 1013.70 1012.54 1011.24 1009.85 1008.41 1006.95 1005.52 1004.11 1002.73 1001.36 999.98 998.56 997.11 995.64 994.17 992.76 991.48 990.40 989.60 989.13 989.02 989.29 989.90 990.82 991.99 993.32 994.73 996.15 997.51 998.78 999.93 1000.97 1001.92 1002.81
1019.33 1018.86 1018.34 1017.80 1017.26 1016.75 1016.22 1015.67 1015.05 1014.32 1013.45 1012.44 1011.28 1010.00 1008.62 1007.20 1005.75 1004.31 1002.89 1001.49 1000.10 998.72 997.33 995.95 994.60 993.31 992.14 991.15 990.40 989.94 989.82 990.04 990.59 991.44 992.54 993.81 995.16 996.54 997.86 999.10 1000.24 1001.26 1002.20 1003.09
1019.31 1018.78 1018.17 1017.53 1016.90 1016.31 1015.74 1015.19 1014.61 1013.96 1013.21 1012.32 1011.28 1010.10 1008.80 1007.41 1005.97 1004.52 1003.08 1001.68 1000.30 998.96 997.65 996.37 995.14 993.97 992.91 992.00 991.29 990.84 990.69 990.84 991.31 992.07 993.06 994.24 995.52 996.84 998.14 999.37 1000.50 1001.54 1002.51 1003.43
1019.25 1018.68 1018.00 1017.30 1016.60 1015.94 1015.34 1014.78 1014.23 1013.64 1012.97 1012.18 1011.24 1010.15 1008.92 1007.58 1006.17 1004.74 1003.31 1001.91 1000.57 999.28 998.04 996.85 995.72 994.66 993.68 992.84 992.17 991.72 991.52 991.60 991.98 992.62 993.52 994.60 995.80 997.07 998.34 999.57 1000.73 1001.81 1002.82 1003.79
1019.04 1018.45 1017.75 1017.01 1016.28 1015.59 1014.97 1014.41 1013.88 1013.34 1012.73 1012.02 1011.16 1010.15 1008.99 1007.71 1006.35 1004.95 1003.55 1002.18 1000.87 999.63 998.45 997.34 996.29 995.30 994.39 993.59 992.94 992.48 992.24 992.25 992.54 993.09 993.88 994.88 996.02 997.24 998.50 999.74 1000.94 1002.07 1003.14 1004.17
1018.59 1018.00 1017.32 1016.59 1015.87 1015.20 1014.59 1014.05 1013.55 1013.05 1012.49 1011.84 1011.05 1010.11 1009.02 1007.81 1006.50 1005.15 1003.79 1002.46 1001.18 999.98 998.84 997.77 996.77 995.82 994.95 994.18 993.54 993.06 992.79 992.76 992.98 993.46 994.19 995.13 996.23 997.43 998.68 999.94 1001.17 1002.36 1003.49 1004.57
1017.84 1017.30 1016.67 1016.00 1015.34 1014.73 1014.17 1013.68 1013.22 1012.76 1012.26 1011.66 1010.93 1010.06 1009.03 1007.89 1006.64 1005.34 1004.02 1002.72 1001.48 1000.29 999.17 998.12 997.13 996.20 995.34 994.58 993.94 993.47 993.19 993.14 993.34 993.80 994.50 995.41 996.50 997.70 998.96 1000.23 1001.49 1002.71 1003.88 1005.01
1016.82 1016.35 1015.82 1015.25 1014.70 1014.18 1013.72 1013.30 1012.90 1012.50 1012.04 1011.50 1010.83 1010.01 1009.06 1007.97 1006.78 1005.53 1004.25 1002.98 1001.74 1000.55 999.42 998.35 997.35 996.41 995.55 994.80 994.18 993.72 993.47 993.44 993.67 994.15 994.87 995.80 996.90 998.11 999.39 1000.68 1001.96 1003.19 1004.38 1005.52
1015.61 1015.24 1014.83 1014.41 1013.99 1013.61 1013.26 1012.94 1012.63 1012.29 1011.89 1011.40 1010.78 1010.02 1009.12 1008.09 1006.95 1005.74 1004.48 1003.21 1001.97 1000.75 999.59 998.48 997.44 996.48 995.62 994.88 994.29 993.88 993.69 993.73 994.03 994.58 995.36 996.35 997.48 998.72 1000.02 1001.32 1002.60 1003.83 1005.01 1006.14
1014.35 1014.09 1013.82 1013.56 1013.31 1013.08 1012.87 1012.66 1012.44 1012.17 1011.83 1011.39 1010.82 1010.10 1009.25 1008.26 1007.16 1005.97 1004.72 1003.45 1002.17 1000.91 999.70 998.54 997.45 996.46 995.59 994.88 994.34 994.01 993.91 994.07 994.48 995.14 996.02 997.08 998.28 999.56 1000.87 1002.17 1003.44 1004.65 1005.80 1006.91
1013.17 1013.03 1012.91 1012.81 1012.73 1012.66 1012.58 1012.49 1012.36 1012.16 1011.88 1011.48 1010.95 1010.28 1009.46 1008.50 1007.43 1006.25 1005.00 1003.70 1002.38 1001.07 999.79 998.57 997.44 996.43 995.56 994.88 994.41 994.18 994.21 994.50 995.06 995.85 996.85 998.01 999.27 1000.59 1001.92 1003.22 1004.47 1005.65 1006.77 1007.84
1012.17 1012.15 1012.18 1012.23 1012.31 1012.38 1012.44 1012.46 1012.41 1012.28 1012.04 1011.69 1011.19 1010.55 1009.76 1008.82 1007.76 1006.58 1005.32 1003.98 1002.62 1001.25 999.91 998.64 997.47 996.44 995.59 994.96 994.58 994.46 994.62 995.06 995.76 996.70 997.82 999.07 1000.41 1001.77 1003.12 1004.41 1005.64 1006.79 1007.88 1008.91
1011.41 1011.50 1011.66 1011.86 1012.07 1012.27 1012.44 1012.54 1012.57 1012.50 1012.31 1011.99 1011.52 1010.90 1010.13 1009.22 1008.16 1006.98 1005.70 1004.34 1002.93 1001.52 1000.13 998.82 997.62 996.59 995.76 995.19 994.89 994.89 995.18 995.76 996.60 997.66 998.89 1000.24 1001.63 1003.04 1004.40 1005.69 1006.90 1008.03 1009.08 1010.09
1010.88 1011.08 1011.35 1011.66 1011.99 1012.29 1012.55 1012.73 1012.82 1012.79 1012.64 1012.36 1011.92 1011.33 1010.58 1009.68 1008.64 1007.46 1006.17 1004.79 1003.35 1001.90 1000.49 999.15 997.95 996.93 996.13 995.62 995.40 995.50 995.90 996.60 997.55 998.71 1000.03 1001.44 1002.88 1004.31 1005.68 1006.97 1008.17 1009.28 1010.32 1011.32
1010.55 1010.83 1011.20 1011.60 1012.02 1012.40 1012.73 1012.97 1013.11 1013.13 1013.02 1012.76 1012.36 1011.80 1011.09 1010.21 1009.19 1008.02 1006.74 1005.36 1003.91 1002.45 1001.03 999.69 998.49 997.50 996.74 996.29 996.14 996.31 996.80 997.57 998.60 999.82 1001.18 1002.62 1004.09 1005.52 1006.90 1008.19 1009.39 1010.50 1011.54 1012.53
1010.36 1010.72 1011.16 1011.64 1012.11 1012.56 1012.93 1013.22 1013.40 1013.46 1013.39 1013.18 1012.82 1012.30 1011.63 1010.79 1009.81 1008.67 1007.41 1006.05 1004.62 1003.18 1001.77 1000.45 999.29 998.32 997.61 997.20 997.11 997.33 997.86 998.67 999.72 1000.96 1002.33 1003.77 1005.23 1006.65 1008.02 1009.31 1010.50 1011.62 1012.67 1013.68
1010.26 1010.69 1011.19 1011.72 1012.24 1012.72 1013.14 1013.46 1013.68 1013.78 1013.75 1013.59 1013.28 1012.81 1012.19 1011.41 1010.48 1009.39 1008.17 1006.86 1005.47 1004.07 1002.70 1001.43 1000.31 999.39 998.73 998.35 998.29 998.54 999.08 999.89 1000.92 1002.13 1003.47 1004.87 1006.29 1007.68 1009.02 1010.30 1011.50 1012.62 1013.69 1014.71
1010.26 1010.74 1011.28 1011.84 1012.38 1012.89 1013.33 1013.68 1013.93 1014.07 1014.09 1013.98 1013.72 1013.32 1012.76 1012.04 1011.17 1010.15 1009.00 1007.75 1006.43 1005.10 1003.80 1002.59 1001.53 1000.67 1000.05 999.71 999.66 999.90 1000.42 1001.19 1002.17 1003.32 1004.58 1005.91 1007.26 1008.61 1009.91 1011.16 1012.36 1013.49 1014.58 1015.62
1010.37 1010.88 1011.43 1012.00 1012.55 1013.06 1013.51 1013.88 1014.15 1014.33 1014.39 1014.33 1014.13 1013.79 1013.30 1012.65 1011.85 1010.91 1009.84 1008.67 1007.44 1006.19 1004.98 1003.86 1002.87 1002.07 1001.50 1001.18 1001.14 1001.37 1001.84 1002.55 1003.45 1004.51 1005.67 1006.91 1008.18 1009.46 1010.71 1011.93 1013.11 1014.25 1015.34 1016.40
1010.60 1011.12 1011.68 1012.23 1012.77 1013.27 1013.70 1014.07 1014.36 1014.55 1014.65 1014.63 1014.49 1014.20 1013.78 1013.21 1012.48 1011.62 1010.64 1009.57 1008.43 1007.29 1006.17 1005.14 1004.24 1003.51 1002.99 1002.71 1002.66 1002.86 1003.29 1003.92 1004.73 1005.69 1006.75 1007.88 1009.06 1010.25 1011.44 1012.63 1013.79 1014.92 1016.02 1017.08
1010.99 1011.50 1012.03 1012.55 1013.05 1013.51 1013.92 1014.27 1014.56 1014.76 1014.87 1014.89 1014.78 1014.55 1014.18 1013.67 1013.03 1012.25 1011.36 1010.38 1009.34 1008.30 1007.29 1006.36 1005.55 1004.90 1004.44 1004.19 1004.15 1004.33 1004.71 1005.27 1005.98 1006.83 1007.79 1008.82 1009.90 1011.01 1012.14 1013.28 1014.41 1015.53 1016.63 1017.70
1011.54 1012.01 1012.48 1012.95 1013.39 1013.80 1014.16 1014.48 1014.74 1014.94 1015.06 1015.09 1015.01 1014.81 1014.49 1014.04 1013.46 1012.75 1011.95 1011.06 1010.13 1009.20 1008.29 1007.47 1006.75 1006.18 1005.78 1005.56 1005.54 1005.70 1006.04 1006.53 1007.17 1007.93 1008.79 1009.72 1010.71 1011.75 1012.82 1013.91 1015.01 1016.11 1017.20 1018.27
1012.20 1012.61 1013.01 1013.40 1013.77 1014.10 1014.41 1014.69 1014.91 1015.09 1015.20 1015.23 1015.17 1015.00 1014.71 1014.30 1013.78 1013.14 1012.41 1011.61 1010.78 1009.94 1009.15 1008.42 1007.80 1007.31 1006.97 1006.79 1006.79 1006.94 1007.25 1007.70 1008.28 1008.96 1009.73 1010.59 1011.50 1012.47 1013.49 1014.53 1015.60 1016.69 1017.76 1018.82
1012.91 1013.24 1013.55 1013.86 1014.14 1014.40 1014.65 1014.87 1015.05 1015.20 1015.29 1015.32 1015.26 1015.11 1014.85 1014.48 1014.00 1013.43 1012.77 1012.05 1011.30 1010.56 1009.86 1009.23 1008.69 1008.28 1008.00 1007.87 1007.89 1008.05 1008.34 1008.76 1009.29 1009.91 1010.62 1011.41 1012.27 1013.18 1014.15 1015.16 1016.20 1017.25 1018.31 1019.36
1013.57 1013.81 1014.04 1014.25 1014.45 1014.65 1014.83 1014.99 1015.14 1015.26 1015.34 1015.36 1015.30 1015.16 1014.93 1014.59 1014.16 1013.64 1013.04 1012.40 1011.73 1011.08 1010.46 1009.91 1009.46 1009.12 1008.90 1008.81 1008.86 1009.03 1009.32 1009.71 1010.21 1010.80 1011.46 1012.20 1013.01 1013.88 1014.81 1015.78 1016.78 1017.82 1018.86 1019.89
1014.09 1014.25 1014.39 1014.53 1014.66 1014.79 1014.92 1015.04 1015.16 1015.26 1015.33 1015.34 1015.30 1015.18 1014.96 1014.66 1014.28 1013.81 1013.27 1012.70 1012.11 1011.53 1010.99 1010.52 1010.14 1009.86 1009.69 1009.65 1009.72 1009.90 1010.19 1010.58 1011.06 1011.62 1012.25 1012.96 1013.73 1014.56 1015.45 1016.39 1017.36 1018.37 1019.38 1020.39
Thickness
5430 5436 5435 5431 5432 5427 5415 5410 5405 5418 5426 5435 5437 5437 5439 5441 5444 5447 5449 5453 5456 5459 5463 5469 5476 5484 5492 5500 5510 5520 5530 5539 5548 5558 5567 5576 5583 5590 5595 5600 5605 5607 5610 5612
5424 5434 5434 5434 5438 5434 5429 5426 5422 5422 5426 5434 5436 5435 5435 5435 5438 5440 5443 5447 5451 5455 5459 5463 5470 5478 5486 5494 5504 5512 5523 5533 5542 5551 5560 5569 5576 5583 5588 5594 5599 5602 5605 5608
5414 5427 5424 5425 5440 5436 5432 5431 5425 5417 5424 5431 5429 5430 5429 5430 5431 5433 5436 5440 5443 5448 5453 5458 5464 5472 5479 5487 5497 5506 5516 5526 5536 5544 5553 5562 5569 5576 5582 5588 5592 5595 5599 5602
5400 5404 5396 5434 5448 5443 5435 5432 5428 5425 5426 5425 5424 5425 5426 5426 5425 5426 5429 5434 5437 5442 5447 5453 5460 5467 5474 5482 5491 5500 5509 5518 5528 5537 5545 5554 5562 5569 5575 5582 5586 5590 5595 5598
5389 5390 5407 5436 5443 5433 5421 5417 5425 5421 5421 5420 5420 5418 5419 5422 5422 5421 5423 5428 5431 5436 5442 5449 5455 5463 5469 5477 5485 5493 5502 5511 5521 5529 5537 5547 5556 5563 5570 5575 5580 5585 5589 5592
5385 5383 5395 5428 5434 5429 5416 5401 5419 5416 5412 5411 5407 5397 5406 5414 5414 5416 5419 5422 5426 5432 5437 5443 5449 5457 5463 5470 5478 5486 5496 5505 5514 5522 5530 5540 5549 5556 5563 5570 5575 5579 5583 5587
5382 5380 5400 5425 5423 5415 5391 5394 5412 5410 5406 5402 5396 5394 5401 5407 5409 5411 5414 5418 5422 5427 5431 5437 5444 5450 5457 5464 5471 5479 5489 5498 5507 5515 5523 5533 5542 5550 5557 5564 5569 5574 5578 5580
5380 5377 5395 5420 5410 5399 5397 5406 5405 5402 5399 5396 5396 5398 5399 5400 5403 5405 5408 5413 5417 5420 5426 5432 5438 5444 5450 5457 5466 5473 5482 5492 5501 5509 5518 5527 5535 5543 5550 5558 5563 5567 5571 5572
5393 5404 5419 5416 5408 5406 5403 5399 5398 5395 5393 5391 5390 5390 5393 5394 5396 5399 5402 5405 5410 5415 5421 5428 5433 5439 5444 5451 5459 5467 5476 5485 5494 5503 5511 5521 5529 5537 5544 5551 5556 5561 5564 5566
5397 5409 5413 5412 5408 5404 5399 5394 5393 5389 5386 5384 5382 5384 5385 5387 5390 5393 5396 5399 5403 5409 5415 5422 5427 5432 5438 5445 5452 5460 5469 5478 5487 5495 5504 5514 5523 5531 5538 5544 5551 5555 5558 5560
5394 5402 5402 5404 5400 5397 5394 5390 5387 5383 5380 5377 5376 5377 5379 5381 5384 5387 5391 5393 5397 5402 5408 5415 5421 5426 5432 5439 5446 5454 5463 5472 5481 5490 5498 5508 5517 5524 5532 5541 5548 5552 5555 5558
5393 5399 5392 5393 5394 5391 5386 5382 5379 5376 5374 5372 5371 5372 5374 5375 5379 5382 5385 5387 5391 5396 5402 5409 5415 5421 5427 5433 5440 5449 5457 5466 5475 5484 5491 5500 5509 5516 5524 5533 5539 5544 5550 5553
5399 5397 5391 5389 5385 5382 5377 5375 5372 5370 5367 5366 5367 5367 5369 5370 5373 5376 5379 5382 5385 5390 5396 5403 5410 5416 5422 5428 5435 5443 5452 5461 5469 5477 5485 5493 5502 5510 5516 5522 5529 5535 5540 5543
5391 5386 5381 5379 5374 5372 5369 5368 5365 5364 5362 5361 5361 5362 5363 5365 5368 5370 5373 5377 5381 5386 5392 5399 5405 5412 5418 5424 5431 5438 5447 5455 5464 5471 5479 5487 5496 5504 5511 5516 5520 5524 5528 5533
5381 5375 5370 5369 5366 5364 5362 5359 5356 5355 5355 5356 5356 5356 5357 5358 5361 5365 5368 5373 5377 5383 5389 5395 5401 5407 5413 5419 5427 5434 5442 5451 5459 5466 5473 5480 5489 5496 5503 5509 5514 5516 5518 5520
5370 5366 5362 5358 5356 5355 5353 5350 5348 5348 5348 5348 5348 5349 5350 5352 5356 5360 5364 5368 5373 5379 5384 5390 5396 5402 5409 5415 5422 5430 5438 5447 5455 5461 5467 5474 5482 5489 5496 5501 5505 5508 5511 5512
5357 5354 5350 5347 5346 5344 5343 5342 5341 5340 5340 5341 5341 5343 5344 5347 5351 5354 5359 5363 5369 5375 5380 5386 5392 5399 5405 5411 5418 5426 5434 5443 5451 5457 5463 5470 5477 5484 5490 5494 5498 5500 5503 5506
5350 5346 5343 5340 5338 5337 5336 5335 5334 5333 5333 5334 5335 5336 5338 5341 5344 5348 5353 5358 5365 5371 5377 5383 5389 5395 5402 5409 5415 5423 5431 5439 5447 5454 5460 5466 5472 5478 5483 5487 5491 5493 5494 5497
5342 5338 5335 5333 5331 5328 5327 5326 5326 5326 5327 5327 5328 5330 5333 5336 5339 5343 5348 5354 5360 5366 5374 5379 5386 5393 5400 5408 5414 5421 5428 5436 5443 5450 5456 5462 5467 5472 5476 5481 5484 5486 5489 5491
5332 5329 5327 5324 5322 5320 5319 5319 5319 5319 5320 5321 5322 5324 5328 5331 5335 5339 5344 5349 5355 5360 5368 5375 5382 5390 5398 5406 5412 5418 5425 5433 5440 5446 5451 5456 5461 5465 5469 5473 5477 5480 5482 5484
5322 5319 5317 5314 5313 5313 5312 5312 5311 5312 5313 5314 5316 5319 5322 5326 5330 5334 5339 5346 5354 5358 5365 5372 5379 5386 5394 5402 5409 5415 5421 5428 5435 5441 5445 5450 5454 5458 5462 5466 5470 5473 5475 5477
5311 5309 5307 5306 5305 5304 5304 5303 5304 5305 5307 5309 5311 5314 5317 5321 5326 5330 5336 5341 5349 5356 5362 5368 5375 5383 5391 5398 5405 5412 5418 5424 5430 5435 5440 5445 5449 5452 5455 5459 5463 5466 5469 5471
5301 5300 5298 5297 5296 5295 5295 5296 5297 5299 5301 5303 5306 5309 5312 5316 5320 5325 5333 5339 5345 5352 5359 5365 5373 5381 5389 5395 5402 5409 5415 5421 5426 5430 5434 5439 5443 5446 5450 5453 5457 5460 5463 5465
5291 5290 5288 5287 5287 5286 5287 5289 5291 5294 5295 5298 5302 5305 5308 5313 5318 5323 5329 5336 5343 5350 5356 5363 5371 5379 5386 5392 5399 5406 5411 5417 5421 5425 5429 5433 5437 5441 5444 5448 5452 5455 5458 5460
5280 5279 5278 5277 5278 5279 5282 5284 5285 5287 5290 5294 5298 5302 5305 5309 5314 5321 5326 5333 5340 5347 5354 5361 5370 5377 5383 5389 5396 5402 5407 5412 5416 5420 5424 5428 5432 5436 5439 5442 5446 5450 5453 5454
5271 5270 5271 5271 5271 5273 5275 5277 5280 5283 5286 5290 5295 5299 5303 5307 5312 5318 5324 5330 5337 5345 5351 5358 5366 5373 5380 5387 5393 5399 5404 5408 5412 5416 5420 5424 5428 5432 5435 5438 5440 5444 5447 5448
5264 5264 5264 5265 5267 5268 5269 5271 5274 5277 5280 5284 5289 5294 5299 5304 5310 5315 5322 5329 5335 5342 5349 5356 5363 5370 5377 5384 5390 5396 5401 5405 5409 5413 5416 5420 5423 5427 5430 5433 5436 5439 5441 5443